www.pogodaiklimat.ru

Погода и климат >> Архив погоды >> Испания >> Барденас-Реалес


ПОГОДА в Барденас-Реалесе

  • Прогноз погоды в Барденас-Реалесе
  • Монитор погоды в Барденас-Реалесе

АРХИВ ПОГОДЫ в Барденас-Реалесе

Время (UTC), дата Ветер
(напр.,м/с)
 
Видим.   Явления Облачность Т
(С)
Тd
(С)
f
(%)
Тe
(С)
Тes
(С)
Комфортность P
(гПа)
Po
(гПа)
Тmin
(С)
Tmax
(С)
R
(мм)
R24
(мм)
S
(см)
01 12.08 СЗ 5-6
{6}
20 км н/о +17.2 +11.4 69 +17 +17 1017.4 983.0
02 12.08 З 5-6
{7}
20 км н/о +17.0 +10.9 67 +16 +16 1017.3 982.9
04 12.08 З 5-6
{7}
20 км н/о +16.4 +10.6 69 +16 +16 1017.4 982.9
05 12.08 З 4-6
{6}
20 км н/о +15.9 +10.4 70 +15 +15 1018.0 983.4
06 12.08 З 5 20 км н/о +15.9 +9.6 66 +15 +15 1018.3 983.7 +15.8 +25.1
07 12.08 З 5-6
{7}
20 км н/о +17.0 +9.4 61 +16 +16 1018.9 984.4
08 12.08 СЗ 5-7
{7}
20 км н/о +18.2 +9.3 56 +18 +18 1019.4 985.0
10 12.08 СЗ 5-7
{7}
20 км н/о +21.0 +8.7 45 +22 +22 комфорт 1019.4 985.3
11 12.08 СЗ 6-8
{8}
20 км н/о +21.7 +8.3 42 +23 +23 комфорт 1019.4 985.4
12 12.08 СЗ 5-8
{8}
20 км н/о +22.5 +8.3 40 +24 +24 комфорт 1019.0 985.1
13 12.08 СЗ 6-8
{8}
20 км н/о +23.5 +8.4 38 +24 +24 комфорт 1018.4 984.6
14 12.08 СЗ 6-8
{9}
20 км н/о +23.8 +6.1 32 +24 +24 комфорт 1018.6 984.8
16 12.08 СЗ 5-8
{9}
20 км н/о +23.3 +7.4 36 +24 +24 комфорт 1018.4 984.6
17 12.08 СЗ 6-8
{8}
20 км н/о +22.3 +7.3 38 +23 +23 комфорт 1018.9 985.0
18 12.08 СЗ 5-7
{8}
20 км н/о +21.1 +8.7 45 +22 +22 комфорт 1019.6 985.5 +24.1
19 12.08 СЗ 4-6
{8}
20 км н/о +19.0 +9.2 53 +20 +20 1020.9 986.5
20 12.08 СЗ 5-6
{7}
20 км н/о +17.4 +9.6 60 +17 +17 1021.7 987.1
22 12.08 СЗ 4-5
{5}
20 км н/о +16.2 +9.6 65 +16 +16 1022.2 987.5
23 12.08 СЗ 4-6
{6}
20 км н/о +16.0 +9.4 65 +15 +15 1021.7 987.0
00 13.08 СЗ 4-5
{6}
20 км н/о +15.8 +9.7 67 +15 +15 1021.9 987.1
01 13.08 З 4-5
{6}
20 км н/о +16.2 +9.2 63 +15 +15 1021.9 987.2
02 13.08 З 4-5
{6}
20 км н/о +16.1 +9.0 63 +16 +16 1021.6 986.9
04 13.08 З 4-6
{6}
20 км н/о +15.0 +8.5 65 +14 +14 1020.9 986.1
05 13.08 З 4-5
{5}
20 км н/о +14.9 +8.8 67 +14 +14 1020.9 986.1
06 13.08 З 4 20 км н/о +15.4 +9.3 67 +15 +15 1021.2 986.4 +14.7 +20.7
07 13.08 З 4-5
{5}
20 км н/о +16.1 +9.6 65 +16 +16 1021.6 986.9
08 13.08 З 4-5
{5}
20 км н/о +17.4 +9.6 60 +17 +17 1021.5 986.9
10 13.08 СЗ 5-6
{7}
20 км н/о +20.7 +8.0 44 +22 +22 комфорт 1020.8 986.6
11 13.08 СЗ 4-7
{7}
20 км н/о +22.0 +8.1 41 +23 +23 комфорт 1020.3 986.3
12 13.08 СЗ 4-6
{7}
20 км н/о +22.8 +7.3 37 +24 +24 комфорт 1019.7 985.8
13 13.08 СЗ 4-6
{7}
20 км н/о +24.1 +7.3 34 +24 +24 комфорт 1019.0 985.3
14 13.08 СЗ 5-7
{7}
20 км н/о +24.4 +6.7 32 +24 +24 комфорт 1018.3 984.6
16 13.08 СЗ 5-7
{7}
20 км н/о +24.7 +5.9 30 +25 +25 комфорт 1017.4 983.8
17 13.08 СЗ 5-6
{7}
20 км н/о +24.2 +7.7 35 +25 +25 комфорт 1017.7 984.0
18 13.08 СЗ 4-6
{6}
20 км н/о +23.1 +8.8 40 +24 +24 комфорт 1017.9 984.1 +24.8
19 13.08 СЗ 4-5
{6}
20 км н/о +21.3 +9.2 46 +23 +23 комфорт 1018.6 984.6
20 13.08 СЗ 3-4
{5}
20 км н/о +19.5 +9.9 54 +21 +21 комфорт 1019.4 985.2
22 13.08 З 3-4
{4}
20 км н/о +17.3 +10.4 64 +17 +17 1020.6 986.1
23 13.08 З 3-3
{4}
20 км н/о +16.1 +10.2 68 +16 +16 1020.6 985.9
00 14.08 ЮЗ 1-2
{3}
20 км н/о +15.0 +10.0 72 +16 +16 1020.8 986.0
01 14.08 З 1-1
{2}
20 км н/о +14.8 +9.4 70 +16 +16 1020.7 985.9
02 14.08 ЮЗ 1-2
{2}
20 км н/о +14.6 +8.9 69 +15 +15 1020.6 985.7
04 14.08 ЮЗ 1-2
{2}
20 км н/о +13.5 +8.8 73 +14 +14 1020.1 985.1
05 14.08 З 1-1
{2}
20 км н/о +13.0 +7.8 71 +14 +14 1020.0 985.0
06 14.08 З 1 20 км н/о +13.3 +8.0 70 +14 +14 1020.5 985.5 +11.7 +23.0
07 14.08 З 1-1
{1}
20 км н/о +15.9 +9.3 65 +17 +17 1020.6 985.9
08 14.08 ЮЗ 1-2
{2}
20 км н/о +17.7 +8.5 55 +19 +19 1020.4 985.9
10 14.08 СЗ 2-3
{3}
20 км н/о +23.8 +5.1 30 +24 +24 комфорт 1019.2 985.4
11 14.08 СЗ 2-3
{3}
20 км н/о +27.0 +3.4 22 +26 +26 жарко 1018.1 984.7
12 14.08 СЗ 3-5
{5}
20 км н/о +28.7 +5.5 23 +27 +27 жарко 1017.3 984.1
13 14.08 СЗ 3-5
{5}
20 км н/о +29.9 +5.9 22 +28 +28 жарко 1016.5 983.5
14 14.08 СЗ 2-4
{4}
19 км н/о +31.4 +6.4 21 +30 +30 жарко 1015.6 982.8
16 14.08 С 3-5
{6}
20 км н/о +32.0 +7.6 22 +31 +31 жарко 1014.5 981.8
17 14.08 СЗ 4-6
{6}
20 км н/о +31.0 +8.7 25 +30 +30 жарко 1014.6 981.8
18 14.08 С 4-5
{6}
20 км н/о +28.9 +9.6 30 +29 +29 жарко 1015.2 982.1 +32.4
19 14.08 С 3-4
{6}
20 км н/о +27.1 +9.4 33 +27 +27 жарко 1016.1 982.8
20 14.08 С 2-3
{4}
20 км н/о +24.9 +11.1 42 +26 +26 жарко 1017.2 983.7
22 14.08 СЗ 3-3
{3}
20 км н/о +21.9 +14.0 61 +25 +25 комфорт 1019.0 985.1
23 14.08 З 2-2
{3}
20 км н/о +20.8 +13.9 65 +24 +24 комфорт 1019.3 985.3
00 15.08 З 2-3
{3}
20 км н/о +20.0 +14.1 69 +23 +23 комфорт 1019.4 985.3
01 15.08 СЗ 3-3
{4}
20 км н/о +20.1 +14.7 71 +23 +23 комфорт 1019.3 985.2
02 15.08 СЗ 4-5
{5}
20 км н/о +20.1 +14.9 72 +23 +23 комфорт 1019.1 985.0
04 15.08 З 3-3
{4}
20 км н/о +19.2 +15.1 77 +21 +21 комфорт 1019.1 984.9
05 15.08 СЗ 2-3
{4}
20 км н/о +19.4 +15.4 78 +22 +22 комфорт 1019.6 985.4
06 15.08 З 2 20 км н/о +19.8 +15.4 76 +23 +23 комфорт 1020.0 985.8 +19.1 +28.8
07 15.08 СЗ 2-3
{3}
20 км н/о +21.7 +15.5 68 +25 +25 комфорт 1019.9 986.0
08 15.08 СЗ 4-5
{5}
20 км н/о +23.1 +15.2 61 +27 +27 душно 1019.8 986.0
10 15.08 СЗ 5-6
{6}
20 км н/о +24.8 +13.4 49 +27 +27 жарко 1019.7 986.1
11 15.08 СЗ 4-6
{7}
20 км н/о +25.6 +12.7 45 +27 +27 жарко 1019.4 985.9
12 15.08 СЗ 3-6
{6}
20 км н/о +25.9 +11.7 41 +27 +27 жарко 1019.2 985.7
13 15.08 СЗ 4-6
{6}
20 км н/о +27.2 +10.4 35 +28 +28 жарко 1018.4 985.1
14 15.08 СЗ 4-6
{6}
20 км н/о +27.5 +8.4 30 +27 +27 жарко 1017.9 984.6
16 15.08 СЗ 5-6
{7}
20 км н/о +27.3 +8.7 31 +27 +27 жарко 1017.3 984.0
17 15.08 СЗ 6-7
{7}
20 км н/о +26.6 +9.0 33 +27 +27 жарко 1017.2 983.8
18 15.08 СЗ 6-7
{7}
20 км н/о +24.8 +9.6 38 +26 +26 жарко 1017.5 983.9 +28.2
19 15.08 СЗ 4-6
{7}
20 км н/о +22.2 +10.3 47 +24 +24 комфорт 1018.6 984.7
20 15.08 СЗ 4-5
{5}
20 км н/о +20.1 +10.8 55 +22 +22 комфорт 1019.5 985.3
22 15.08 З 4-6
{6}
20 км н/о +18.4 +10.3 59 +19 +19 1019.7 985.3
23 15.08 СЗ 4-5
{6}
20 км н/о +18.0 +10.4 61 +18 +18 1019.7 985.3
00 16.08 С 1-3
{6}
20 км н/о +17.4 +10.3 63 +18 +18 1020.1 985.6
01 16.08 СЗ 2-3
{3}
20 км н/о +16.6 +10.4 67 +17 +17 1019.7 985.1
02 16.08 ЮЗ 2-2
{3}
20 км н/о +15.4 +9.9 70 +16 +16 1019.7 985.0
04 16.08 ЮЗ 1-1
{2}
20 км н/о +13.3 +8.5 73 +14 +14 1019.4 984.4
05 16.08 С 1-1
{1}
20 км н/о +12.4 +8.9 79 +12 +12 1019.6 984.5
06 16.08 З 1 20 км н/о +12.7 +8.5 76 +14 +14 1020.0 984.9 +11.9 +24.4
07 16.08 штиль 0-1
{1}
20 км н/о +16.5 +10.3 67 +16 +16 1019.9 985.3
08 16.08 штиль 0-1
{1}
20 км н/о +19.0 +10.5 58 +20 +20 1019.6 985.3
10 16.08 Ю 1-2
{2}
20 км н/о +23.6 +9.2 40 +24 +24 комфорт 1018.0 984.3
11 16.08 В 2-4
{4}
20 км н/о +26.4 +7.0 29 +26 +26 жарко 1016.9 983.5
12 16.08 В 2-3
{3}
20 км н/о +28.9 +5.0 22 +27 +27 жарко 1015.8 982.7
13 16.08 В 2-3
{3}
20 км н/о +30.8 +5.9 21 +29 +29 жарко 1014.7 981.8
14 16.08 В 2-3
{4}
20 км н/о +32.1 +6.2 20 +30 +30 жарко 1013.6 980.9
16 16.08 ЮВ 1-2
{3}
20 км н/о +33.6 +8.9 22 +32 +32 жарко 1011.8 979.3
17 16.08 СВ 1-2
{2}
20 км н/о +33.8 +9.2 22 +33 +33 жарко 1011.4 979.0
18 16.08 СЗ 1-1
{3}
20 км н/о +34.0 +8.5 21 +33 +33 жарко 1011.2 978.8 +34.0
19 16.08 ЮЗ 2-2
{2}
20 км н/о +31.6 +10.3 27 +31 +31 жарко 1011.8 979.1
20 16.08 Ю 1-1
{2}
20 км н/о +29.0 +10.2 31 +29 +29 жарко 1012.5 979.5
22 16.08 ЮЗ 1-1
{1}
20 км н/о +24.9 +9.6 38 +26 +26 жарко 1013.5 980.1
23 16.08 В 2-2
{2}
20 км н/о +24.0 +11.3 45 +25 +25 комфорт 1014.0 980.5
00 17.08 С 1-1
{2}
20 км н/о +22.9 +10.6 46 +25 +25 комфорт 1014.4 980.7
01 17.08 ЮЗ 1-1
{1}
20 км н/о +21.8 +11.2 51 +24 +24 комфорт 1014.7 980.9
02 17.08 штиль 0-1
{1}
20 км н/о +20.1 +11.3 57 +21 +21 комфорт 1015.0 981.0
04 17.08 СЗ 1-2
{2}
20 км н/о +18.8 +11.6 63 +21 +21 комфорт 1015.1 980.9
05 17.08 С 1-1
{1}
20 км н/о +18.5 +11.8 65 +21 +21 комфорт 1015.1 980.9
06 17.08 ЮВ 1 20 км н/о +18.6 +11.4 63 +21 +21 комфорт 1015.6 981.4 +18.1 +34.0
07 17.08 Ю 1-1
{1}
20 км н/о +21.3 +12.7 58 +24 +24 комфорт 1015.4 981.5
08 17.08 Ю 1-2
{2}
20 км н/о +24.1 +12.7 49 +26 +26 жарко 1015.3 981.7
10 17.08 В 3-4
{4}
20 км н/о +29.4 +16.6 46 +33 +33 душно 1013.7 980.8
11 17.08 В 3-4
{5}
20 км н/о +30.3 +16.3 43 +34 +34 очень
душно
1013.1 980.3
12 17.08 В 2-4
{4}
20 км н/о +32.7 +14.8 34 +34 +34 очень
жарко
1011.9 979.4
13 17.08 В 2-4
{4}
20 км н/о +34.0 +13.5 29 +35 +35 очень
жарко
1010.8 978.5
14 17.08 В 2-4
{4}
20 км н/о +35.4 +12.3 25 +35 +35 очень
жарко
1009.7 977.5
16 17.08 В 3-4
{5}
20 км н/о +36.7 +10.8 21 +36 +36 очень
жарко
1008.0 976.0
17 17.08 В 3-4
{5}
20 км н/о +36.4 +11.2 22 +36 +36 очень
жарко
1007.4 975.4
18 17.08 В 3-4
{4}
20 км н/о +35.8 +11.4 23 +35 +35 очень
жарко
1007.1 975.0 +36.7
19 17.08 В 2-3
{4}
20 км н/о +33.1 +11.6 27 +33 +33 жарко 1007.6 975.2
20 17.08 В 3-3
{3}
20 км н/о +30.5 +13.3 35 +32 +32 жарко 1008.4 975.8
22 17.08 ЮВ 2-3
{5}
20 км н/о +27.7 +17.0 52 +32 +32 очень
душно
1008.9 976.0
23 17.08 ЮВ 2-4
{4}
20 км н/о +27.0 +18.5 60 +32 +32 очень
душно
1009.4 976.4
00 18.08 В 4-5
{5}
20 км н/о +25.5 +18.7 66 +30 +30 душно 1009.6 976.5
01 18.08 В 5-6
{6}
20 км н/о +24.4 +17.6 66 +28 +28 душно 1009.7 976.4
02 18.08 В 3-5
{6}
20 км н/о +23.6 +17.4 68 +27 +27 жарко 1009.9 976.5
04 18.08 В 2-3
{4}
20 км н/о +21.8 +16.7 73 +26 +26 душно 1010.1 976.5
05 18.08 В 3-3
{3}
20 км н/о +21.3 +16.5 74 +25 +25 комфорт 1010.1 976.5
06 18.08 В 2 20 км н/о +21.4 +16.4 73 +25 +25 комфорт 1010.5 976.9 +21.1 +35.5
07 18.08 ЮВ 2-3
{3}
20 км н/о +23.5 +17.2 68 +27 +27 душно 1011.0 977.6
08 18.08 ЮВ 2-4
{4}
20 км н/о +25.2 +17.4 62 +29 +29 душно 1011.3 978.1
10 18.08 ЮВ 2-4
{4}
20 км н/о +28.7 +17.5 51 +33 +33 очень
душно
1010.7 977.9
11 18.08 В 2-4
{4}
20 км н/о +30.7 +16.0 41 +34 +34 очень
душно
1009.8 977.2
12 18.08 В 2-3
{4}
20 км н/о +32.4 +14.0 33 +34 +34 очень
жарко
1008.8 976.4
13 18.08 СВ 1-2
{3}
20 км н/о +34.0 +13.9 30 +35 +35 очень
жарко
1007.9 975.7
14 18.08 СВ 1-2
{3}
20 км н/о +34.6 +13.5 28 +35 +35 очень
жарко
1007.3 975.1
16 18.08 С 1-3
{4}
20 км н/о +35.6 +11.9 24 +35 +35 очень
жарко
1006.6 974.5
17 18.08 СЗ 5-6
{7}
20 км н/о +32.1 +15.2 36 +34 +34 душно 1007.4 975.0
18 18.08 СЗ 5-6
{7}
20 км н/о +29.0 +15.5 44 +32 +32 душно 1008.8 976.0 +35.6
19 18.08 СЗ 5-7
{7}
20 км н/о +24.6 +15.5 57 +28 +28 душно 1010.8 977.5
20 18.08 СЗ 4-6
{7}
20 км н/о +22.6 +15.4 64 +27 +27 душно 1012.3 978.7
22 18.08 СЗ 6-8
{8}
20 км н/о +20.3 +13.9 67 +22 +22 комфорт 1014.3 980.4
23 18.08 СЗ 4-6
{7}
20 км н/о +19.5 +13.5 68 +21 +21 комфорт 1015.3 981.2
00 19.08 СЗ 5-7
{8}
20 км н/о +18.9 +13.3 70 +20 +20 1015.9 981.7

 

Местоположение метеостанции Барденас-Реалес (Испания): широта 42.20 долгота -1.47 высота над уровнем моря 295 м.

В архиве по умолчанию представлена погода в Барденас-Реалесе за последнюю неделю. Архивные данные за месяц целиком и за предыдущие месяцы, начиная с января 2011 года, Вы можете получить, выбрав интересующий диапазон дат из раскрывающегося списка и нажав кнопку "Ввод!".


*Определитесь, кто Вы:
робот инопланетянин человек

Внимание! Время в таблицах - всемирное. Для получения местного времени необходимо прибавить поправку, которая равна 1 ч.

Смотрите также архив погоды в соседних городах и на ближайших метеорологических станциях:

Погода в Сос-дель-Рей-Католико (Испания) (39 км)
Погода в Илундайне (Испания) (65 км)
Погода в Памплоне (Испания) (65 км)
Погода в Сарагосе (Испания) (71 км)
Погода в Логроньо (Испания) (76 км)
Погода в Сарагоса - Вальдеспарт (Испания) (78 км)
Погода в Хаке (Испания) (87 км)
Погода в Арагес-дель-Пуэрто (Испания) (87 км)
Погода в Сории (Испания) (96 км)
Погода в Калатаюде (Испания) (98 км)

Пояснения к столбцам:

Ветер - указаны скорость ветра в м/с - средняя за 10 мин, порывы в срок и между сроками (в фигурных скобках) и направление, откуда дует ветер: С - северный, СВ - северо-восточный, В - восточный, ЮВ - юго-восточный, Ю - южный, ЮЗ - юго-западный, З - западный, СЗ - северо-западный.
Видимость - горизонтальная дальность видимости в метрах или километрах. При видимости от 1 до 10 км при отсутствии осадков обычно наблюдается дымка, при ухудшении видимости до 1 км и менее - туман. В сухую погоду видимость может ухудшаться дымом, пылью или мглою.
Явления - указаны атмосферные явления, наблюдавшиеся в срок или в последний час перед сроком; фигурными скобками обозначены явления, наблюдавшиеся между сроками (за 1-3 часа до срока); квадратными скобками обозначены град или гололедные отложения с указанием их диаметра в мм.
Облачность - указаны через наклонную черту общая и нижняя облачность в баллах и высота нижней границы облаков в метрах; квадратными скобками обозначены формы облаков: Ci - перистые, Cs - перисто-слоистые, Cc - перисто-кучевые, Ac - высококучевые, As - высокослоистые, Sc - слоисто-кучевые, Ns - слоисто-дождевые, Cu - кучевые, Cb - кучево-дождевые. Подробнее классификацию облаков см. в Атласе облаков (PDF).
T - Температура воздуха - температура, измеренная на высоте 2 м над землей.
Td - Температура точки росы - температура, при понижении до которой содержащийся в воздухе водяной пар достигнет насыщения.
f - Относительная влажность воздуха - влажноcть воздуха, измеренная на высоте 2 м над землей.
Te - Эффективная температура - температура, которую ощущает одетый по сезону человек в тени. Характеристика душности погоды. При расчете учитывается влияние влажности воздуха и скорости ветра на теплоощущения человека.
Tes - Эффективная температура на солнце - температура, которую ощущает человек, с поправкой на солнечный нагрев. Характеристика знойности погоды. Зависит от высоты солнца над горизонтом, облачности и скорости ветра. Ночью, в пасмурную погоду, а также при ветре 12 м/с и более поправка равна нулю.
P - Атмосферное давление - приведенное к уровню моря атмосферное давление.
Po - Атмосферное давление - измеренное на уровне метеостанции атмосферное давление.
Tmin - Минимальная температура - минимум температуры воздуха на высоте 2 м над землей.
Tmax - Максимальная температура - максимум температуры воздуха на высоте 2 м над землей.
R - Количество осадков - Количество выпавших осадков за период времени, мм. При наведении курсора мыши на число - период времени, за который выпало указанное количество осадков.
R24 - Количество осадков - Количество выпавших осадков за 24 часа, мм.
S - Снежный покров - Высота снежного покрова, см. При наведении курсора мыши на число - состояние снежного покрова и степень покрытия местности в баллах.